Terminal Aerodrome Forecast
Issued by NWS Binghamton, NY

Home | Current Version | Previous Version | Text Only | Print | Product List | Glossary On
Versions: 1 2 3 4 5 6 7 8 9 10 11 12 13 14 15 16 17 18 19
904
FTUS41 KBGM 091140
TAFAVP
TAF
KAVP 091140Z 0912/1012 13008KT P6SM OVC025
     FM091900 20003KT P6SM -SN OVC020
      TEMPO 0920/0924 1 1/2SM -SN SCT008 OVC020
     FM100000 VRB03KT 1 1/2SM -SN SCT008 OVC015
     FM100700 27004KT P6SM BKN050=

USA.gov is the U.S. government's official web portal to all federal, state and local government web resources and services.